• In Russia
  • List of Countries
  • For 7 days
  • Water Temperature
  • Satellite Maps
  • Weather Map
  • Weather Widgets
  • user-avatar
    Login

    Hourly Weather Santa Fe

    Today, 19 February, Monday

    Time Temperature Precipitation Wind Pressure Humidity
    00:00 +29°C° 0.2 mm 3 mps 751 mmHg 61%
    01:00 +28°C° 0.2 mm 3 mps 751 mmHg 65%
    02:00 +27°C° 0.2 mm 3 mps 751 mmHg 70%
    03:00 +26°C° 0.4 mm 2 mps 751 mmHg 74%
    04:00 +25°C° 0.4 mm 2 mps 751 mmHg 77%
    05:00 +25°C° 0.4 mm 1 mps 750 mmHg 80%
    06:00 +26°C° 0.1 mm 2 mps 751 mmHg 78%
    07:00 +27°C° 0.1 mm 2 mps 751 mmHg 75%
    08:00 +27°C° 0.1 mm 2 mps 751 mmHg 73%
    09:00 +30°C° 0 mm 1 mps 751 mmHg 62%
    10:00 +33°C° 0 mm 1 mps 751 mmHg 52%
    11:00 +34°C° 0 mm 0 mps 751 mmHg 41%
    12:00 +37°C° 0 mm 1 mps 750 mmHg 38%
    13:00 +37°C° 0 mm 1 mps 750 mmHg 34%
    14:00 +39°C° 0 mm 1 mps 749 mmHg 31%
    15:00 +37°C° 0 mm 1 mps 749 mmHg 31%
    16:00 +37°C° 0 mm 1 mps 749 mmHg 32%
    17:00 +36°C° 0 mm 1 mps 749 mmHg 32%
    18:00 +35°C° 0.2 mm 1 mps 749 mmHg 38%
    19:00 +33°C° 0.2 mm 1 mps 749 mmHg 44%
    20:00 +31°C° 0.2 mm 1 mps 750 mmHg 50%
    21:00 +30°C° 0.1 mm 1 mps 750 mmHg 54%
    22:00 +29°C° 0.1 mm 2 mps 751 mmHg 57%
    23:00 +28°C° 0.1 mm 2 mps 751 mmHg 61%

    Tomorrow, 20 February, Tuesday

    Time Temperature Precipitation Wind Pressure Humidity
    00:00 +28°C° 0 mm 2 mps 751 mmHg 64%
    01:00 +27°C° 0 mm 2 mps 751 mmHg 68%
    02:00 +26°C° 0 mm 2 mps 751 mmHg 71%
    03:00 +26°C° 0 mm 2 mps 751 mmHg 73%
    04:00 +26°C° 0 mm 2 mps 751 mmHg 75%
    05:00 +25°C° 0 mm 1 mps 751 mmHg 77%
    06:00 +27°C° 0.2 mm 1 mps 752 mmHg 72%
    07:00 +28°C° 0.2 mm 1 mps 752 mmHg 66%
    08:00 +29°C° 0.2 mm 1 mps 753 mmHg 61%
    09:00 +32°C° 0 mm 2 mps 753 mmHg 52%
    10:00 +35°C° 0 mm 2 mps 753 mmHg 43%
    11:00 +38°C° 0 mm 2 mps 753 mmHg 34%
    12:00 +38°C° 0 mm 2 mps 753 mmHg 32%
    13:00 +39°C° 0 mm 3 mps 752 mmHg 29%
    14:00 +39°C° 0 mm 3 mps 752 mmHg 27%
    15:00 +38°C° 0.1 mm 3 mps 752 mmHg 30%
    16:00 +37°C° 0.1 mm 4 mps 752 mmHg 33%
    17:00 +36°C° 0.1 mm 4 mps 752 mmHg 37%
    18:00 +32°C° 0.9 mm 6 mps 753 mmHg 51%
    19:00 +28°C° 0.9 mm 7 mps 754 mmHg 64%
    20:00 +23°C° 0.9 mm 8 mps 755 mmHg 78%
    21:00 +23°C° 1.3 mm 6 mps 756 mmHg 81%
    22:00 +22°C° 1.3 mm 5 mps 757 mmHg 84%
    23:00 +22°C° 1.3 mm 4 mps 757 mmHg 87%

    Day after tomorrow, 21 February, Wednesday

    Time Temperature Precipitation Wind Pressure Humidity
    00:00 +21°C° 0 mm 4 mps 757 mmHg 87%
    01:00 +21°C° 0 mm 3 mps 757 mmHg 87%
    02:00 +20°C° 0 mm 3 mps 757 mmHg 87%
    03:00 +20°C° 0 mm 3 mps 758 mmHg 87%
    04:00 +20°C° 0 mm 3 mps 758 mmHg 88%
    05:00 +19°C° 0 mm 3 mps 758 mmHg 89%
    06:00 +20°C° 0 mm 4 mps 759 mmHg 86%
    07:00 +21°C° 0 mm 4 mps 760 mmHg 83%
    08:00 +22°C° 0 mm 4 mps 760 mmHg 80%
    09:00 +26°C° 0 mm 4 mps 760 mmHg 68%
    10:00 +28°C° 0 mm 4 mps 760 mmHg 56%
    11:00 +32°C° 0 mm 4 mps 760 mmHg 43%
    12:00 +33°C° 0 mm 4 mps 759 mmHg 37%
    13:00 +34°C° 0 mm 4 mps 759 mmHg 30%
    14:00 +35°C° 0 mm 5 mps 758 mmHg 24%
    15:00 +35°C° 0 mm 5 mps 757 mmHg 23%
    16:00 +35°C° 0 mm 5 mps 757 mmHg 21%
    17:00 +34°C° 0 mm 5 mps 757 mmHg 20%
    18:00 +32°C° 0 mm 4 mps 757 mmHg 23%
    19:00 +28°C° 0 mm 3 mps 757 mmHg 27%
    20:00 +26°C° 0 mm 3 mps 757 mmHg 30%
    21:00 +25°C° 0 mm 3 mps 758 mmHg 32%
    22:00 +24°C° 0 mm 3 mps 758 mmHg 34%
    23:00 +22°C° 0 mm 3 mps 758 mmHg 36%

    22 February, Thursday

    Time Temperature Precipitation Wind Pressure Humidity
    00:00 +23°C° 0 mm 2 mps 758 mmHg 39%
    01:00 +21°C° 0 mm 2 mps 758 mmHg 43%
    02:00 +20°C° 0 mm 2 mps 758 mmHg 46%
    03:00 +20°C° 0 mm 2 mps 759 mmHg 50%
    04:00 +19°C° 0 mm 2 mps 759 mmHg 53%
    05:00 +19°C° 0 mm 2 mps 759 mmHg 57%
    06:00 +21°C° 0 mm 2 mps 760 mmHg 53%
    07:00 +23°C° 0 mm 2 mps 760 mmHg 49%
    08:00 +25°C° 0 mm 3 mps 760 mmHg 45%
    09:00 +27°C° 0 mm 3 mps 760 mmHg 38%
    10:00 +30°C° 0 mm 2 mps 760 mmHg 32%
    11:00 +32°C° 0 mm 2 mps 760 mmHg 25%
    12:00 +34°C° 0 mm 2 mps 759 mmHg 22%
    13:00 +35°C° 0 mm 2 mps 758 mmHg 20%
    14:00 +36°C° 0 mm 2 mps 757 mmHg 17%
    15:00 +36°C° 0 mm 2 mps 757 mmHg 17%
    16:00 +36°C° 0 mm 2 mps 756 mmHg 16%
    17:00 +36°C° 0 mm 3 mps 755 mmHg 16%
    18:00 +34°C° 0 mm 3 mps 756 mmHg 20%
    19:00 +30°C° 0 mm 3 mps 756 mmHg 23%
    20:00 +28°C° 0 mm 3 mps 756 mmHg 26%
    21:00 +26°C° 0 mm 3 mps 757 mmHg 30%
    22:00 +25°C° 0 mm 3 mps 757 mmHg 34%
    23:00 +24°C° 0 mm 3 mps 757 mmHg 37%

    23 February, Friday

    Time Temperature Precipitation Wind Pressure Humidity
    00:00 +24°C° 0 mm 3 mps 757 mmHg 40%
    01:00 +22°C° 0 mm 3 mps 757 mmHg 42%
    02:00 +21°C° 0 mm 2 mps 757 mmHg 44%
    03:00 +21°C° 0 mm 2 mps 757 mmHg 45%
    04:00 +20°C° 0 mm 2 mps 757 mmHg 45%
    05:00 +20°C° 0 mm 2 mps 757 mmHg 46%
    06:00 +23°C° 0 mm 2 mps 757 mmHg 41%
    07:00 +25°C° 0 mm 2 mps 758 mmHg 37%
    08:00 +26°C° 0 mm 2 mps 759 mmHg 32%
    09:00 +29°C° 0 mm 2 mps 759 mmHg 28%
    10:00 +31°C° 0 mm 2 mps 758 mmHg 23%
    11:00 +35°C° 0 mm 3 mps 758 mmHg 18%
    12:00 +36°C° 0 mm 3 mps 758 mmHg 17%
    13:00 +37°C° 0 mm 3 mps 757 mmHg 16%
    14:00 +38°C° 0 mm 3 mps 756 mmHg 14%
    15:00 +38°C° 0 mm 3 mps 756 mmHg 15%
    16:00 +38°C° 0 mm 3 mps 756 mmHg 15%
    17:00 +37°C° 0 mm 3 mps 755 mmHg 15%
    18:00 +35°C° 0 mm 3 mps 756 mmHg 19%
    19:00 +31°C° 0 mm 3 mps 756 mmHg 23%
    20:00 +29°C° 0 mm 3 mps 757 mmHg 28%
    21:00 +28°C° 0 mm 4 mps 757 mmHg 32%
    22:00 +27°C° 0 mm 5 mps 758 mmHg 37%
    23:00 +26°C° 0 mm 5 mps 758 mmHg 41%

    24 February, Saturday

    Time Temperature Precipitation Wind Pressure Humidity
    00:00 +25°C° 0 mm 5 mps 759 mmHg 44%
    01:00 +23°C° 0 mm 4 mps 759 mmHg 47%
    02:00 +22°C° 0 mm 3 mps 759 mmHg 50%
    03:00 +21°C° 0 mm 3 mps 759 mmHg 53%
    04:00 +21°C° 0 mm 3 mps 759 mmHg 57%
    05:00 +20°C° 0 mm 3 mps 759 mmHg 60%
    06:00 +21°C° 0 mm 4 mps 760 mmHg 58%
    07:00 +22°C° 0 mm 4 mps 760 mmHg 55%
    08:00 +23°C° 0 mm 4 mps 761 mmHg 52%
    09:00 +27°C° 0 mm 4 mps 760 mmHg 43%
    10:00 +29°C° 0 mm 5 mps 760 mmHg 34%
    11:00 +33°C° 0 mm 5 mps 760 mmHg 24%
    12:00 +34°C° 0 mm 5 mps 759 mmHg 21%
    13:00 +35°C° 0 mm 5 mps 758 mmHg 19%
    14:00 +36°C° 0 mm 4 mps 758 mmHg 16%
    15:00 +36°C° 0 mm 4 mps 757 mmHg 16%
    16:00 +35°C° 0 mm 4 mps 757 mmHg 16%
    17:00 +35°C° 0 mm 4 mps 757 mmHg 16%
    18:00 +33°C° 0 mm 3 mps 757 mmHg 20%
    19:00 +29°C° 0 mm 3 mps 757 mmHg 24%
    20:00 +26°C° 0 mm 2 mps 758 mmHg 28%
    21:00 +26°C° 0 mm 3 mps 758 mmHg 34%
    22:00 +25°C° 0 mm 3 mps 758 mmHg 40%
    23:00 +24°C° 0 mm 3 mps 758 mmHg 46%
    Show more